Location: Newark
(42.9858°N, 0.6717°E)
Time: 19:59:42
(UTC+00:00)

Envisat - Pass Details

Date: 26 October 2019
Orbit: 764 x 766 km, 98.1° (Epoch: 17 November)

Event Time Altitude Azimuth Distance (km) Brightness Sun altitude
Rises 18:45:34 0° 191° (S) 3,218 6.4 -20.2°
Reaches altitude 10° 18:48:05 10° 201° (SSW) 2,297 5.7 -20.7°
Maximum altitude 18:52:35 32° 264° (W) 1,297 4.8 -21.5°
Drops below altitude 10° 18:57:08 10° 327° (NNW) 2,311 5.9 -22.3°
Sets 18:59:41 0° 338° (NNW) 3,242 6.6 -22.8°
